When you browse on this site, cookies collect data to enhance your experience and personalize the content and advertising you see.
Visit our Privacy Policy to learn more. By continuing to use the site, you agree to this use of cookies and data.
  • In Schweiz
  • Länderverzeichnis
  • Für 7 Tage
  • Wassertemperatur
  • Satellitenkarten
  • Wetterkarte
  • Widgets
  • user-avatar
    Anmelden

    Stündliche Wetter Moluprei

    Heute, 11 Dezember, Dienstag

    Zeit Temperatur Niederschläge Wind Luftdruck Luftfeuchtigkeit
    00:00 +27°C° 0 mm 1 m/S 758 mmHg 77%
    01:00 +27°C° 0 mm 1 m/S 757 mmHg 81%
    02:00 +27°C° 0 mm 1 m/S 757 mmHg 82%
    03:00 +26°C° 0 mm 1 m/S 757 mmHg 83%
    04:00 +26°C° 0 mm 1 m/S 757 mmHg 83%
    05:00 +26°C° 0 mm 1 m/S 757 mmHg 84%
    06:00 +26°C° 0 mm 1 m/S 758 mmHg 84%
    07:00 +27°C° 0 mm 1 m/S 758 mmHg 82%
    08:00 +28°C° 0 mm 2 m/S 758 mmHg 76%
    09:00 +29°C° 0 mm 2 m/S 758 mmHg 71%
    10:00 +31°C° 0 mm 3 m/S 758 mmHg 65%
    11:00 +33°C° 0 mm 3 m/S 758 mmHg 60%
    12:00 +34°C° 0 mm 3 m/S 757 mmHg 56%
    13:00 +35°C° 0 mm 2 m/S 757 mmHg 53%
    14:00 +35°C° 0 mm 2 m/S 757 mmHg 53%
    15:00 +35°C° 0 mm 2 m/S 756 mmHg 54%
    16:00 +35°C° 0 mm 2 m/S 756 mmHg 55%
    17:00 +34°C° 0 mm 2 m/S 756 mmHg 59%
    18:00 +31°C° 0 mm 2 m/S 756 mmHg 63%
    19:00 +30°C° 0 mm 2 m/S 757 mmHg 67%
    20:00 +30°C° 0.1 mm 2 m/S 757 mmHg 69%
    21:00 +29°C° 0.1 mm 2 m/S 758 mmHg 72%
    22:00 +28°C° 0.1 mm 2 m/S 758 mmHg 75%
    23:00 +28°C° 0.1 mm 2 m/S 758 mmHg 76%

    Morgen, 12 Dezember, Mittwoch

    Zeit Temperatur Niederschläge Wind Luftdruck Luftfeuchtigkeit
    00:00 +28°C° 0.1 mm 2 m/S 758 mmHg 77%
    01:00 +28°C° 0.1 mm 2 m/S 758 mmHg 77%
    02:00 +28°C° 0.1 mm 2 m/S 758 mmHg 78%
    03:00 +27°C° 0.1 mm 2 m/S 758 mmHg 79%
    04:00 +27°C° 0.1 mm 2 m/S 758 mmHg 80%
    05:00 +27°C° 0 mm 2 m/S 758 mmHg 82%
    06:00 +26°C° 0 mm 2 m/S 759 mmHg 83%
    07:00 +26°C° 0 mm 2 m/S 759 mmHg 84%
    08:00 +28°C° 0 mm 3 m/S 759 mmHg 77%
    09:00 +29°C° 0 mm 3 m/S 760 mmHg 70%
    10:00 +32°C° 0 mm 4 m/S 760 mmHg 63%
    11:00 +33°C° 0 mm 3 m/S 759 mmHg 60%
    12:00 +34°C° 0 mm 3 m/S 759 mmHg 57%
    13:00 +35°C° 0 mm 3 m/S 758 mmHg 54%
    14:00 +34°C° 0 mm 3 m/S 758 mmHg 55%
    15:00 +34°C° 0 mm 2 m/S 757 mmHg 57%
    16:00 +34°C° 0 mm 2 m/S 757 mmHg 59%
    17:00 +32°C° 0 mm 2 m/S 757 mmHg 61%
    18:00 +31°C° 0 mm 3 m/S 757 mmHg 62%
    19:00 +30°C° 0 mm 3 m/S 758 mmHg 64%
    20:00 +29°C° 0 mm 4 m/S 758 mmHg 65%
    21:00 +28°C° 0 mm 4 m/S 759 mmHg 66%
    22:00 +28°C° 0 mm 5 m/S 760 mmHg 66%
    23:00 +27°C° 0 mm 4 m/S 760 mmHg 66%

    übermorgen, 13 Dezember, Donnerstag

    Zeit Temperatur Niederschläge Wind Luftdruck Luftfeuchtigkeit
    00:00 +27°C° 0 mm 4 m/S 760 mmHg 67%
    01:00 +26°C° 0 mm 4 m/S 760 mmHg 67%
    02:00 +26°C° 0 mm 4 m/S 759 mmHg 68%
    03:00 +26°C° 0 mm 3 m/S 759 mmHg 70%
    04:00 +25°C° 0 mm 3 m/S 759 mmHg 71%
    05:00 +25°C° 0 mm 3 m/S 759 mmHg 73%
    06:00 +24°C° 0 mm 3 m/S 760 mmHg 75%
    07:00 +24°C° 0 mm 3 m/S 760 mmHg 77%
    08:00 +26°C° 0 mm 3 m/S 761 mmHg 72%
    09:00 +27°C° 0 mm 3 m/S 761 mmHg 67%
    10:00 +29°C° 0 mm 4 m/S 761 mmHg 62%
    11:00 +30°C° 0 mm 4 m/S 761 mmHg 58%
    12:00 +31°C° 0 mm 3 m/S 760 mmHg 55%
    13:00 +33°C° 0 mm 3 m/S 759 mmHg 51%
    14:00 +34°C° 0 mm 3 m/S 758 mmHg 51%
    15:00 +34°C° 0 mm 3 m/S 757 mmHg 51%
    16:00 +34°C° 0 mm 3 m/S 757 mmHg 51%
    17:00 +31°C° 0 mm 2 m/S 757 mmHg 55%
    18:00 +30°C° 0 mm 2 m/S 758 mmHg 59%
    19:00 +29°C° 0 mm 2 m/S 758 mmHg 63%
    20:00 +28°C° 0 mm 3 m/S 759 mmHg 64%
    21:00 +28°C° 0 mm 3 m/S 759 mmHg 65%
    22:00 +28°C° 0 mm 4 m/S 760 mmHg 66%
    23:00 +27°C° 0 mm 3 m/S 759 mmHg 67%

    14 Dezember, Freitag

    Zeit Temperatur Niederschläge Wind Luftdruck Luftfeuchtigkeit
    00:00 +27°C° 0 mm 3 m/S 759 mmHg 67%
    01:00 +26°C° 0 mm 3 m/S 759 mmHg 68%
    02:00 +26°C° 0 mm 3 m/S 759 mmHg 70%
    03:00 +25°C° 0 mm 3 m/S 759 mmHg 72%
    04:00 +25°C° 0 mm 3 m/S 758 mmHg 74%
    05:00 +24°C° 0 mm 3 m/S 759 mmHg 75%
    06:00 +24°C° 0 mm 2 m/S 759 mmHg 77%
    07:00 +24°C° 0 mm 2 m/S 760 mmHg 78%
    08:00 +26°C° 0 mm 3 m/S 760 mmHg 73%
    09:00 +28°C° 0 mm 3 m/S 761 mmHg 68%
    10:00 +29°C° 0 mm 4 m/S 761 mmHg 62%
    11:00 +32°C° 0 mm 4 m/S 760 mmHg 58%
    12:00 +33°C° 0 mm 4 m/S 759 mmHg 54%
    13:00 +34°C° 0 mm 4 m/S 758 mmHg 50%
    14:00 +34°C° 0 mm 4 m/S 758 mmHg 51%
    15:00 +34°C° 0 mm 4 m/S 757 mmHg 51%
    16:00 +34°C° 0 mm 3 m/S 756 mmHg 52%
    17:00 +33°C° 0 mm 3 m/S 757 mmHg 55%
    18:00 +31°C° 0 mm 2 m/S 758 mmHg 59%
    19:00 +30°C° 0 mm 2 m/S 758 mmHg 62%
    20:00 +29°C° 0 mm 2 m/S 759 mmHg 64%
    21:00 +29°C° 0 mm 2 m/S 759 mmHg 65%
    22:00 +28°C° 0 mm 3 m/S 760 mmHg 66%
    23:00 +28°C° 0 mm 3 m/S 759 mmHg 66%

    15 Dezember, Samstag

    Zeit Temperatur Niederschläge Wind Luftdruck Luftfeuchtigkeit
    00:00 +27°C° 0 mm 4 m/S 759 mmHg 67%
    01:00 +27°C° 0 mm 4 m/S 759 mmHg 67%
    02:00 +26°C° 0 mm 4 m/S 759 mmHg 69%
    03:00 +26°C° 0 mm 3 m/S 759 mmHg 71%
    04:00 +25°C° 0 mm 3 m/S 758 mmHg 74%
    05:00 +25°C° 0 mm 3 m/S 759 mmHg 75%
    06:00 +25°C° 0 mm 2 m/S 759 mmHg 76%
    07:00 +25°C° 0 mm 2 m/S 760 mmHg 77%
    08:00 +26°C° 0 mm 3 m/S 760 mmHg 73%
    09:00 +28°C° 0 mm 3 m/S 760 mmHg 68%
    10:00 +29°C° 0 mm 3 m/S 761 mmHg 64%
    11:00 +30°C° 0 mm 4 m/S 760 mmHg 60%
    12:00 +33°C° 0 mm 4 m/S 759 mmHg 56%
    13:00 +34°C° 0 mm 4 m/S 758 mmHg 52%
    14:00 +34°C° 0 mm 3 m/S 757 mmHg 52%
    15:00 +34°C° 0 mm 3 m/S 757 mmHg 52%
    16:00 +34°C° 0 mm 3 m/S 756 mmHg 53%
    17:00 +32°C° 0 mm 2 m/S 757 mmHg 57%
    18:00 +30°C° 0 mm 2 m/S 757 mmHg 61%
    19:00 +29°C° 0 mm 1 m/S 758 mmHg 65%
    20:00 +29°C° 0 mm 2 m/S 758 mmHg 66%
    21:00 +29°C° 0 mm 2 m/S 759 mmHg 67%
    22:00 +28°C° 0 mm 2 m/S 759 mmHg 68%
    23:00 +28°C° 0 mm 2 m/S 759 mmHg 68%

    16 Dezember, Sonntag

    Zeit Temperatur Niederschläge Wind Luftdruck Luftfeuchtigkeit
    00:00 +28°C° 0 mm 3 m/S 759 mmHg 68%
    01:00 +27°C° 0 mm 3 m/S 759 mmHg 68%
    02:00 +27°C° 0 mm 3 m/S 759 mmHg 70%
    03:00 +26°C° 0 mm 3 m/S 759 mmHg 73%
    04:00 +26°C° 0 mm 3 m/S 759 mmHg 75%
    05:00 +26°C° 0 mm 3 m/S 759 mmHg 76%
    06:00 +25°C° 0 mm 3 m/S 760 mmHg 77%
    07:00 +25°C° 0 mm 3 m/S 760 mmHg 78%
    08:00 +27°C° 0 mm 4 m/S 760 mmHg 73%
    09:00 +29°C° 0 mm 4 m/S 760 mmHg 67%
    10:00 +30°C° 0 mm 4 m/S 761 mmHg 62%
    11:00 +33°C° 0 mm 4 m/S 760 mmHg 58%
    12:00 +34°C° 0 mm 4 m/S 759 mmHg 54%
    13:00 +35°C° 0 mm 4 m/S 758 mmHg 49%
    14:00 +35°C° 0 mm 3 m/S 757 mmHg 49%
    15:00 +35°C° 0 mm 3 m/S 757 mmHg 49%
    16:00 +36°C° 0 mm 3 m/S 756 mmHg 49%
    17:00 +34°C° 0 mm 3 m/S 757 mmHg 53%
    18:00 +32°C° 0 mm 2 m/S 757 mmHg 58%
    19:00 +30°C° 0 mm 2 m/S 758 mmHg 62%
    20:00 +30°C° 0 mm 3 m/S 758 mmHg 62%
    21:00 +30°C° 0 mm 3 m/S 758 mmHg 62%
    22:00 +29°C° 0 mm 4 m/S 759 mmHg 62%
    23:00 +29°C° 0 mm 4 m/S 758 mmHg 62%
    Mehr zeigen